Location: Amherst
(42.5000°N, 72.5000°W)
Time: 02:26:07
(UTC-04:00)

ISS - Pass Details

Date: 18 May 2018
Orbit: 402 x 407 km, 51.6° (Epoch: 26 May)

Event Time Altitude Azimuth Distance (km) Brightness Sun altitude
Exits shadow 00:26:09 11° 42° (NE) 1,408 -0.6 -27.8°
Drops below altitude 10° 00:26:17 10° 43° (NE) 1,458 -0.5 -27.8°
Sets 00:28:30 0° 53° (NE) 2,319 0.4 -27.8°
